This is the latest recevied weather packets stored in our database for station/object DH0DM-13. If no packets are shown the sender has not sent any weather packets the latest 10 day(s).
| Time | Temp. | Humidity | Pressure | Rain* | Wind** | Luminosity | Snow |
|---|---|---|---|---|---|---|---|
| 1787743797 | 15.56° C | 89% | 993.9 hPa | 4.06 mm | 0.89 m/s, 57° | - | - |
| 1787743196 | 15.56° C | 89% | 994.2 hPa | 4.06 mm | 0 m/s | - | - |
| 1787742595 | 15.56° C | 89% | 993.9 hPa | 4.06 mm | 3.58 m/s, 230° | - | - |
| 1787741994 | 15.56° C | 89% | 993.9 hPa | 4.06 mm | 0.89 m/s, 14° | - | - |
| 1787741394 | 15.56° C | 89% | 993.9 hPa | 4.06 mm | 0.45 m/s, 303° | - | - |
| 1787740792 | 15° C | 90% | 994 hPa | 4.06 mm | 0.89 m/s, 322° | - | - |
| 1787740191 | 15° C | 90% | 993.9 hPa | 4.06 mm | 1.34 m/s, 71° | - | - |
| 1787739591 | 15° C | 90% | 993.9 hPa | 4.06 mm | 2.24 m/s, 50° | - | - |
| 1787738990 | 15° C | 90% | 994.2 hPa | 4.06 mm | 0 m/s | - | - |
| 1787738389 | 15° C | 91% | 994.1 hPa | 4.06 mm | 0 m/s | - | - |
| 1787737788 | 14.44° C | 91% | 994 hPa | 4.06 mm | 4.92 m/s, 85° | - | - |
| 1787737187 | 14.44° C | 91% | 993.9 hPa | 4.06 mm | 0 m/s | - | - |
| 1787736586 | 14.44° C | 91% | 994.1 hPa | 4.06 mm | 1.79 m/s, 44° | - | - |
| 1787735985 | 14.44° C | 92% | 993.9 hPa | 4.06 mm | 0.45 m/s, 266° | - | - |
| 1787735384 | 14.44° C | 92% | 994 hPa | 4.06 mm | 1.79 m/s, 80° | - | - |
| 1787734783 | 14.44° C | 92% | 993.7 hPa | 4.06 mm | 1.34 m/s, 31° | - | - |
| 1787734183 | 14.44° C | 93% | 993.7 hPa | 4.06 mm | 6.71 m/s, 69° | - | - |
| 1787733581 | 14.44° C | 93% | 993.8 hPa | 4.06 mm | 0.89 m/s, 113° | - | - |
| 1787732980 | 14.44° C | 93% | 993.5 hPa | 4.06 mm | 1.34 m/s, 102° | - | - |
| 1787732380 | 14.44° C | 93% | 993.4 hPa | 4.06 mm | 0.89 m/s, 115° | - | - |
| 1787731779 | 13.89° C | 93% | 993.2 hPa | 4.06 mm | 0.45 m/s, 81° | - | - |
| 1787731178 | 13.89° C | 93% | 993.3 hPa | 4.06 mm | 3.58 m/s, 72° | - | - |
| 1787730576 | 13.89° C | 94% | 993.1 hPa | 4.06 mm | 0 m/s | - | - |
| 1787729975 | 13.89° C | 94% | 993.3 hPa | 4.06 mm | 5.36 m/s, 25° | - | - |
| 1787729375 | 13.33° C | 94% | 993.1 hPa | 4.06 mm | 0.45 m/s, 46° | - | - |
* Rain since midnight (hover to see other rain measurements)
** Current wind speed in m/s (hover to see current wind gust speed)